Orbital Elements at Epoch 2459200.5 (2020-Dec-17.0) TDB
Reference: JPL 35 (heliocentric ecliptic J2000)
Element | Value | Uncertainty (1-sigma) | Units |
e | .05905252165793944 | 1.7502e-08 | |
a | 2.554222889583063 | 1.1238e-08 | au |
q | 2.403389587076755 | 4.0864e-08 | au |
i | 14.61446767580203 | 3.9175e-07 | deg |
node | 330.2794694821018 | 3.185e-06 | deg |
peri | 296.3156147547839 | 1.8383e-05 | deg |
M | 117.110433037918 | 1.6912e-05 | deg |
tp | 2458715.457602704899 (2019-Aug-19.95760270) | 6.984e-05 | TDB |
period | 1491.030803119818 4.08 | 9.8399e-06 2.694e-08 | d yr |
n | .2414437040782388 | 1.5934e-09 | deg/d |
Q | 2.705056192089371 | 1.1901e-08 | au |
|
| | Orbit Determination Parameters
Additional Information
|